sat.trackr.live / text

‹ back to catalog

STARLINK-36765

NORAD 68962 · 2026-099M

PAYLOAD ACTIVE UNKNOWN

§ Identity

Operator
Country
US
Launch date
2026-05-01
Launch site
AFETR
Launch vehicle
Mass (kg)
RCS (m²)

Purposes: comms

External: N2YO · Heavens-Above · Gunter

§ Orbital elements

Epoch: 2026-09-19T21:50:22.995168Z

Period
93.85 min
Inclination
53.1587°
Eccentricity
0.0000935
Mean motion
15.34412247 rev/d
Perigee alt
462.0 km
Apogee alt
463.3 km
Semi-major
6,840.8 km
B*
5.3269e-4
RAAN
78.5564°
Arg perigee
79.8717°
Mean anomaly
280.2391°
Rev number
2,181

§ Raw data

STARLINK-367651 68962U 26099M   26262.90998837  .00017671  00000+0  53269-3 0  99972 68962  53.1587  78.5564 0000935  79.8717 280.2391 15.34412247 21813

JSON: /api/v1/satellites/68962 · /tle

For live sub-satellite position, see the globe view (requires WebGL).

§ Visibility from observer

Set your observer location to see the next 7 days of passes ≥ 10°. The values pass through the URL so the page stays shareable.

No JS? Fill the form by hand. The geolocation button needs JavaScript.